This is the latest recevied weather packets stored in our database for station/object KC5DAQ-27. If no packets are shown the sender has not sent any weather packets the latest 1 day(s).
| Time | Temp. | Humidity | Pressure | Rain* | Wind** | Luminosity | Snow |
|---|---|---|---|---|---|---|---|
| 1778040909 | 25° C | 90% | 1000.4 hPa | 0 mm | 2.24 m/s, 183° | 0 W/m² | - |
| 1778040847 | 25° C | 90% | 1000.4 hPa | 0 mm | 2.24 m/s, 172° | 0 W/m² | - |
| 1778040784 | 25° C | 90% | 1000.5 hPa | 0 mm | 2.68 m/s, 188° | 0 W/m² | - |
| 1778040724 | 25° C | 90% | 1000.6 hPa | 0 mm | 3.13 m/s, 172° | 0 W/m² | - |
| 1778040663 | 25° C | 90% | 1000.7 hPa | 0 mm | 3.13 m/s, 189° | 0 W/m² | - |
| 1778040603 | 25° C | 90% | 1000.6 hPa | 0 mm | 3.13 m/s, 158° | 0 W/m² | - |
| 1778040542 | 25° C | 90% | 1000.7 hPa | 0 mm | 2.68 m/s, 196° | 0 W/m² | - |
| 1778040483 | 25° C | 90% | 1000.5 hPa | 0 mm | 2.24 m/s, 202° | 0 W/m² | - |
| 1778040422 | 25° C | 90% | 1000.5 hPa | 0 mm | 2.24 m/s, 190° | 0 W/m² | - |
| 1778040360 | 25° C | 90% | 1000.6 hPa | 0 mm | 2.68 m/s, 179° | 0 W/m² | - |
| 1778040296 | 25° C | 90% | 1000.6 hPa | 0 mm | 2.68 m/s, 200° | 0 W/m² | - |
| 1778040234 | 25° C | 90% | 1000.5 hPa | 0 mm | 3.13 m/s, 183° | 0 W/m² | - |
| 1778040172 | 25° C | 90% | 1000.5 hPa | 0 mm | 3.13 m/s, 209° | 0 W/m² | - |
| 1778040111 | 25° C | 90% | 1000.4 hPa | 0 mm | 3.13 m/s, 192° | 0 W/m² | - |
| 1778040050 | 25° C | 90% | 1000.4 hPa | 0 mm | 3.13 m/s, 192° | 0 W/m² | - |
| 1778039988 | 25° C | 90% | 1000.3 hPa | 0 mm | 3.13 m/s, 188° | 0 W/m² | - |
| 1778039929 | 25° C | 90% | 1000.3 hPa | 0 mm | 3.58 m/s, 180° | 0 W/m² | - |
| 1778039868 | 25.56° C | 90% | 1000.3 hPa | 0 mm | 3.58 m/s, 190° | 0 W/m² | - |
| 1778039808 | 25° C | 90% | 1000.4 hPa | 0 mm | 3.13 m/s, 186° | 0 W/m² | - |
| 1778039748 | 25° C | 90% | 1000.4 hPa | 0 mm | 3.13 m/s, 169° | 0 W/m² | - |
| 1778039690 | 25° C | 90% | 1000.4 hPa | 0 mm | 3.58 m/s, 197° | 0 W/m² | - |
| 1778039628 | 25° C | 90% | 1000.4 hPa | 0 mm | 3.58 m/s, 188° | 0 W/m² | - |
| 1778039568 | 25.56° C | 90% | 1000.5 hPa | 0 mm | 3.13 m/s, 192° | 0 W/m² | - |
| 1778039509 | 25.56° C | 90% | 1000.4 hPa | 0 mm | 3.58 m/s, 178° | 0 W/m² | - |
| 1778039448 | 25.56° C | 90% | 1000.4 hPa | 0 mm | 3.13 m/s, 159° | 0 W/m² | - |
* Rain latest hour (hover to see other rain measurements)
** Current wind speed in m/s (hover to see current wind gust speed)